Regional Weather Roundup
Issued by NWS Little Rock, AR

Home | Current Version | Previous Version | Graphics & Text | Print | Product List | Glossary On
Versions: 1 2 3 4 5 6 7 8 9 10 11 12 13 14 15 16 17 18 19 20 21 22 23 24 25 26 27 28 29 30 31 32 33 34 35 36 37 38 39 40 41 42 43 44 45 46 47 48 49 50
447
ASUS44 KLZK 271105
RWRLZK

WEATHER ROUNDUP FOR ARKANSAS
NATIONAL WEATHER SERVICE LITTLE ROCK AR
600 AM CDT SUN MAY 27 2018

NOTE: "FAIR" INDICATES FEW OR NO CLOUDS BELOW 12,000 FEET WITH NO
SIGNIFICANT WEATHER AND/OR OBSTRUCTIONS TO VISIBILITY.

ARZ001-003-010-029-271200-
NORTHWEST ARKANSAS

CITY           SKY/WX    TMP DP  RH WIND       PRES   REMARKS
FAYETTEVILLE   FOG       63  63 100 S3        29.90R VSB 1/4
FORT SMITH     PTCLDY    70  69  97 E5        29.87R
HARRISON       FOG       63  63 100 CALM      29.92R VSB 1/2
BENTONVILLE    CLEAR     69  67  93 E3        29.92R
ROGERS         MOCLDY    68  68 100 SE7       29.91R FOG
SILOAM SPGS    CLEAR     67  66  97 E5        29.90
HIGHFILL       PTCLDY    64  62  93 CALM      29.90R FOG
SPRINGDALE     CLEAR     66  66 100 E5        29.91
$$

ARZ004-005-016-271200-
NORTH CENTRAL ARKANSAS

CITY           SKY/WX    TMP DP  RH WIND       PRES   REMARKS
BATESVILLE     MOCLDY    68  66  94 CALM      29.90R FOG
FLIPPIN        FOG       65  64  97 CALM      29.91R VSB 1/4
MTN HOME       CLEAR     66  66 100 CALM      29.90R
$$

ARZ040-041-271200-
WEST CENTRAL ARKANSAS

CITY           SKY/WX    TMP DP  RH WIND       PRES   REMARKS
MENA           CLOUDY   N/A N/A N/A CALM      29.89R VSB 1/4
MOUNT IDA      FOG       68  68 100 CALM      29.85R VSB 1/4
$$

ARZ009-017-025-026-028-271200-
NORTHEAST ARKANSAS

CITY           SKY/WX    TMP DP  RH WIND       PRES   REMARKS
CORNING        FAIR      72  72 100 S3        29.88S FOG
JONESBORO      FAIR      71  71 100 CALM      29.89R FOG
NEWPORT        FAIR      70  70 100 SE3       29.89R FOG
WALNUT RIDGE     N/A     72  72 100 CALM      29.89R FOG
BLYTHEVILLE    FAIR      73  69  87 S3        29.90R
$$

ARZ022-023-033-042-044-271200-
CENTRAL ARKANSAS

CITY           SKY/WX    TMP DP  RH WIND       PRES   REMARKS
LITTLE ROCK    PTCLDY    68  68 100 CALM      29.87R
N LITTLE ROCK    N/A     68  67  98 CALM      29.84R
JACKSONVILLE   CLEAR     68  68 100 CALM      29.86R
CONWAY         SUNNY     68  68 100 CALM      29.86R FOG
SEARCY         FAIR      69  32  25 CALM      29.88S HAZE
HOT SPRINGS    CLOUDY    70  70 100 E6        29.88R FOG
RUSSELLVILLE   CLEAR     67  67 100 CALM      29.87R FOG
CLINTON        MOCLDY    64  64 100 CALM      29.89R
$$

ARZ036-271200-
EAST ARKANSAS

CITY           SKY/WX    TMP DP  RH WIND       PRES   REMARKS
WEST MEMPHIS   FAIR      70  70 100 CALM      29.88R
$$

ARZ050-053-066-070-073-271200-
SOUTHWEST ARKANSAS

CITY           SKY/WX    TMP DP  RH WIND       PRES   REMARKS
ARKADELPHIA    FAIR      67  66  97 CALM      29.87S
CAMDEN         FAIR      66  64  94 CALM      29.86R FOG
TEXARKANA      CLEAR     68  68 100 CALM      29.84R
EL DORADO      FAIR      67  67 100 CALM      29.86R
DE QUEEN       FOG       68  68 100 CALM      29.83R VSB 1
$$

ARZ056-057-069-271200-
SOUTHEAST ARKANSAS

CITY           SKY/WX    TMP DP  RH WIND       PRES   REMARKS
PINE BLUFF     FAIR      67  65  93 CALM      29.88R FOG
STUTTGART      FAIR      71  68  90 SE6       29.88R

$$






USA.gov is the U.S. government's official web portal to all federal, state and local government web resources and services.